Hourly Data Report for October 02, 2017

All times are specified in Local Standard Time (LST). Add 1 hour to adjust for Daylight Saving Time where and when it is observed.

QUESNEL
BRITISH COLUMBIA

53°01'34.000" N
122°30'37.000" W
545.00 m
1096629
71192
YQZ

Related Data

No related data is available for this station

Download Data

Hourly Data (October 2017)
Hourly Data Report for October 2, 2017
Temp Definition
°C
Dew Point Temp Definition
°C
Rel Hum Definition
%
Wind Dir Definition
10's deg

Wind Spd Definition
km/h
Visibility Definition
km
Stn Press Definition
kPa
Hmdx Definition


Wind Chill Definition


Weather Definition


TIME
00:00 Legend Double Dagger 2.4 0.3 86 35 9 16.1 96.22     LegendNANA
01:00 Legend Double Dagger 1.5 -0.9 84 35 11 16.1 96.26     LegendNANA
02:00 Legend Double Dagger 2.3 -0.8 80 33 18 16.1 96.30     LegendNANA
03:00 Legend Double Dagger 1.8 -1.3 80 34 15 16.1 96.35     LegendNANA
04:00 Legend Double Dagger 1.3 -1.6 81 35 15 16.1 96.41     LegendNANA
05:00 Legend Double Dagger 1.2 -2.2 78 34 18 16.1 96.47     LegendNANA
06:00 Legend Double Dagger 0.9 -2.5 78 34 22 16.1 96.48     LegendNANA
07:00 Legend Double Dagger 0.6 -2.8 78 34 21 16.1 96.56     LegendNANA
08:00 Legend Double Dagger 2.5 -3.0 67 33 26 16.1 96.59     LegendNANA
09:00 Legend Double Dagger 4.3 -3.1 59 32 26 16.1 96.61     LegendNANA
10:00 Legend Double Dagger 6.6 -2.3 53 32 28 16.1 96.60     LegendNANA
11:00 Legend Double Dagger 8.3 -2.5 47 32 22 16.1 96.57     LegendNANA
12:00 Legend Double Dagger 10.1 -3.0 40 34 22 16.1 96.54     LegendNANA
13:00 Legend Double Dagger 11.2 -2.0 40 32 24 16.1 96.50     LegendNANA
14:00 Legend Double Dagger 11.5 -3.6 35 33 24 16.1 96.46     LegendNANA
15:00 Legend Double Dagger 11.4 -4.3 33 33 30 16.1 96.45     LegendNANA
16:00 Legend Double Dagger 10.8 -4.0 35 33 22 16.1 96.46     LegendNANA
17:00 Legend Double Dagger 9.7 -3.9 38 33 18 16.1 96.49     LegendNANA
18:00 Legend Double Dagger 5.4 -3.1 54 35 13 16.1 96.52     LegendNANA
19:00 Legend Double Dagger 3.4 -3.0 63 1 8 16.1 96.54     LegendNANA
20:00 Legend Double Dagger 2.6 -3.1 66   0 16.1 96.56     LegendNANA
21:00 Legend Double Dagger 1.1 -2.5 77 14 4 16.1 96.57     LegendNANA
22:00 Legend Double Dagger -0.3 -3.0 82   0 16.1 96.61     LegendNANA
23:00 Legend Double Dagger -2.0 -3.6 89   0 16.1 96.61     LegendNANA

Notes on Data Quality.

Legend

  • E = Estimated
  • M = Missing
  • NA = Not Available
  • ‡ = Partner data that is not subject to review by the National Climate Archives
Date modified: